Weather in Arzhaan

Russia / Tyva Republic     52°03′36″N   93°36′17″E
temp.,
°C
wind,
m/s
gust,
m/s
humid.,
%
clouds,
%
prec.,
mm/h
press.,
hPa
HPBL,
m
5 march, fri
fri501:00−19se01890 0.0 103220
04:00−19se019237 0.0 103020
07:00−20sse019660 0.0 103020
10:00−14ene118974 0.0 1028142
13:00−10ene228287 0.0 1025383
16:00−9e1181100 0.0 1024338
19:00−10s1188100 0.0 102726
22:00−13w1187100 0.0 103020
6 march, sat
sat601:00−12sse1194100 0.5 103424
04:00−15sse119390 0.0 103420
07:00−15se119595 0.1 103521
10:00−12ene1191100 0.0 1032175
13:00−9ene1284100 0.0 1029329
16:00−7ene1283100 0.0 1025364
19:00−11sse1189100 0.1 102721
22:00−13ssw1185100 0.0 102621
7 march, sun
sun701:00−15s118498 0.0 102620
04:00−16s118499 0.0 102520
07:00−17s118593 0.0 102720
10:00−11e118299 0.0 1026141
13:00−8ene2181100 0.0 1025301
16:00−6ene1182100 0.0 1024305
19:00−9ene0188100 0.0 102621
22:00−13wsw118881 0.0 102821
8 march, mon
mon801:00−14sw118267 0.0 102921
04:00−16ese118639 0.0 102920
07:00−16ese018961 0.0 103020
10:00−11ene1184100 0.0 1028128
13:00−7ene218289 0.0 1025292
16:00−5ene118277 0.0 1023306
19:00−11s118757 0.0 102421
22:00−13ssw118122 0.0 102521
9 march, tue
tue901:00−13s018261 0.0 102521
04:00−12w0183100 0.0 102621
07:00−14sw1185100 0.0 102920
10:00−8ne1080100 0.0 1029141
13:00−5ene118472 0.0 1028276
16:00−4ene118486 0.0 1027252
19:00−10ese119283 0.0 102921
22:00−11s019198 0.0 103021